Location: Arroyo de Valdeoliva
(40.1604°N, 4.9878°W)
Time: 08:16:18
(UTC+00:00)

Cosmos 1825 Rocket - Pass Details

Date: 24 March 2026
Orbit: 596 x 624 km, 82.5° (Epoch: 18 April)

Event Time Altitude Azimuth Distance (km) Brightness Sun altitude
Rises 19:01:02 0° 232° (SW) 2,894 7.8 -5.6°
Reaches altitude 10° 19:04:17 10° 258° (WSW) 1,994 7.6 -6.2°
Maximum altitude 19:06:36 14° 290° (WNW) 1,747 7.4 -6.6°
Drops below altitude 10° 19:08:55 10° 322° (NW) 1,999 6.9 -7.1°
Sets 19:12:12 0° 348° (NNW) 2,907 7.3 -7.7°
